Pau, France

3:42 PM CEST on October 17, 2017 (GMT +0200)
Pau / Pyrenees

Weather History for LFBP - October, 2012

Change the Weather History Date:

Saturday, October 6, 2012

  Actual Average Record
Temperature  
Mean Temperature 70 °F -  
Max Temperature 87 °F 64 °F 87 °F (2012)
Min Temperature 53 °F 47 °F 39 °F (1999)
Cooling Degree Days 5    
Growing Degree Days 20 (Base 50)    
Moisture  
Dew Point 52 °F    
Average Humidity 60    
Maximum Humidity 82    
Minimum Humidity 22    
Precipitation  
Precipitation 0.00 in - - ()
Sea Level Pressure  
Sea Level Pressure 30.04 in    
Wind  
Wind Speed 5 mph ()    
Max Wind Speed 10 mph    
Max Gust Speed -    
Visibility 6.2 miles    
Events      
Averages and records for this station are not official NWS values.
T = Trace of Precipitation, MM = Missing Value Source: Averaged Metar Reports

Daily Weather History Graph

Daily Weather History Graph

Search for Another Location

Airport or City:

Trip Planner

Search our weather history database for the weather conditions in past years. The results will help you decide how hot, cold, wet, or windy it might be!

Date:

Astronomy

Oct. 06, 2012 Rise Set
Actual Time 8:05 AM CEST 7:33 PM CEST
Civil Twilight 7:36 AM CEST 8:01 PM CEST
Nautical Twilight 7:03 AM CEST 8:34 PM CEST
Astronomical Twilight 6:30 AM CEST 9:08 PM CEST
Moon 11:27 PM CEST (10/6) 1:56 PM CEST (10/6)
Length of Visible Light 12h 25m
Length of Day
11h 28m
Waning Gibbous, 68% of the Moon is Illuminated
Oct 6
Waning Gibbous
Oct 8
Last Quarter
Oct 15
New
Oct 22
First Quarter
Oct 29
Full

Hourly Weather History & Observations

Time (CEST) Temp. Heat Index Dew Point Humidity Pressure Visibility Wind Dir Wind Speed Gust Speed Precip Events Conditions
12:00 AM 62.6 °F - 53.6 °F 72% 30.04 in 6.2 mi SSE 5.8 mph - N/A   Unknown
12:30 AM 60.8 °F - 53.6 °F 77% 30.04 in 6.2 mi SE 6.9 mph - N/A   Unknown
1:00 AM 60.8 °F - 53.6 °F 77% 30.04 in 6.2 mi SE 6.9 mph - N/A   Unknown
1:30 AM 60.8 °F - 53.6 °F 77% 30.04 in 6.2 mi SE 6.9 mph - N/A   Unknown
2:00 AM 60.8 °F - 51.8 °F 72% 30.04 in 6.2 mi SE 6.9 mph - N/A   Unknown
2:30 AM 59.0 °F - 50.0 °F 72% 30.04 in 6.2 mi SE 3.5 mph - N/A   Unknown
3:00 AM 57.2 °F - 50.0 °F 77% 30.04 in 6.2 mi ESE 3.5 mph - N/A   Unknown
3:30 AM 57.2 °F - 50.0 °F 77% 30.04 in 6.2 mi ESE 4.6 mph - N/A   Unknown
4:00 AM 57.2 °F - 50.0 °F 77% 30.04 in 6.2 mi SSE 3.5 mph - N/A   Unknown
4:30 AM 55.4 °F - 50.0 °F 82% 30.04 in 6.2 mi SE 3.5 mph - N/A   Unknown
5:00 AM 57.2 °F - 48.2 °F 72% 30.04 in 6.2 mi ESE 4.6 mph - N/A   Unknown
5:30 AM 57.2 °F - 48.2 °F 72% 30.04 in 6.2 mi SE 4.6 mph - N/A   Unknown
6:00 AM 57.2 °F - 48.2 °F 72% 30.04 in 6.2 mi SE 4.6 mph - N/A   Unknown
6:30 AM 55.4 °F - 46.4 °F 72% 30.04 in 6.2 mi SE 5.8 mph - N/A   Unknown
7:00 AM 55.4 °F - 46.4 °F 72% 30.04 in - SE 5.8 mph - N/A   Clear
7:30 AM 53.6 °F - 46.4 °F 77% 30.04 in - SE 3.5 mph - N/A   Clear
8:00 AM 55.4 °F - 46.4 °F 72% 30.04 in - SE 6.9 mph - N/A   Clear
8:30 AM 55.4 °F - 46.4 °F 72% 30.04 in - SE 5.8 mph - N/A   Clear
9:00 AM 57.2 °F - 48.2 °F 72% 30.04 in - SE 6.9 mph - N/A   Clear
9:30 AM 62.6 °F - 50.0 °F 63% 30.04 in - SE 4.6 mph - N/A   Clear
10:00 AM 66.2 °F - 48.2 °F 52% 30.04 in - SSE 5.8 mph - N/A   Clear
10:30 AM 69.8 °F - 48.2 °F 46% 30.04 in - SSE 8.1 mph - N/A   Clear
11:00 AM 73.4 °F - 50.0 °F 44% 30.04 in - SE 6.9 mph - N/A   Clear
11:30 AM 75.2 °F - 51.8 °F 44% 30.04 in - SE 4.6 mph - N/A   Clear
12:00 PM 77.0 °F - 51.8 °F 41% 30.04 in - SSE 6.9 mph - N/A   Clear
12:30 PM 80.6 °F 80.3 °F 53.6 °F 39% 30.04 in - SE 4.6 mph - N/A   Clear
1:00 PM 82.4 °F - 50.0 °F 32% 30.01 in - Variable 2.3 mph - N/A   Clear
2:00 PM 86.0 °F - 48.2 °F 27% 30.01 in - Variable 2.3 mph - N/A   Clear
2:30 PM 87.8 °F - 44.6 °F 22% 30.01 in - NW 3.5 mph - N/A   Clear
3:00 PM 86.0 °F 84.2 °F 53.6 °F 33% 30.01 in - WNW 10.4 mph - N/A   Clear
3:30 PM 84.2 °F - 51.8 °F 33% 30.01 in - North 10.4 mph - N/A   Clear
4:00 PM 82.4 °F - 51.8 °F 35% 30.01 in - North 6.9 mph - N/A   Clear
4:30 PM 82.4 °F 81.4 °F 53.6 °F 37% 30.01 in - NNW 9.2 mph - N/A   Clear
5:00 PM 80.6 °F 80.3 °F 53.6 °F 39% 30.01 in - NNW 8.1 mph - N/A   Clear
5:30 PM 78.8 °F - 53.6 °F 42% 30.01 in - North 6.9 mph - N/A   Clear
6:00 PM 77.0 °F - 55.4 °F 47% 30.01 in - North 5.8 mph - N/A   Clear
6:30 PM 75.2 °F - 55.4 °F 50% 30.01 in - North 3.5 mph - N/A   Clear
7:00 PM 75.2 °F - 55.4 °F 50% 30.01 in - NW 2.3 mph - N/A   Clear
7:30 PM 73.4 °F - 57.2 °F 57% 30.04 in 6.2 mi Variable 1.2 mph - N/A   Unknown
8:00 PM 71.6 °F - 57.2 °F 60% 30.04 in 6.2 mi West 2.3 mph - N/A   Unknown
8:30 PM 69.8 °F - 57.2 °F 64% 30.06 in 6.2 mi Calm Calm - N/A   Unknown
9:00 PM 68.0 °F - 59.0 °F 73% 30.06 in 6.2 mi Calm Calm - N/A   Unknown
9:30 PM 68.0 °F - 59.0 °F 73% 30.09 in 6.2 mi Calm Calm - N/A   Overcast
10:00 PM 68.0 °F - 59.0 °F 73% 30.09 in 6.2 mi Calm Calm - N/A   Unknown
10:30 PM 66.2 °F - 59.0 °F 78% 30.09 in 6.2 mi Calm Calm - N/A   Unknown
11:00 PM 66.2 °F - 59.0 °F 78% 30.12 in 6.2 mi South 2.3 mph - N/A   Unknown
11:30 PM 66.2 °F - 59.0 °F 78% 30.12 in 6.2 mi SE 2.3 mph - N/A   Unknown